Wind_Speed
32 31 33 25 15 14 9 10 13 10 9 7 6 18 8 24 34 31 27 26 22 19 17 11 13 8 1 1 3 4 5 8 10 9 7 9 9 10 10 9 9 10 10 9
32 32 26 16 16 14 7 10 10 8 8 10 9 7 13 27 33 35 30 27 24 22 18 16 13 10 2 2 4 5 7 8 10 11 10 11 9 8 8 8 9 9 10 12
34 24 23 14 17 15 12 7 11 11 14 12 11 1 15 24 34 35 34 31 25 23 20 18 15 12 5 3 5 5 8 9 9 9 11 10 8 7 8 8 6 7 9 12
25 12 24 22 19 17 17 11 7 8 14 10 11 6 7 19 28 37 36 35 30 29 22 19 15 15 4 4 8 8 9 9 9 8 9 9 10 8 7 8 6 6 8 10
18 24 13 19 23 20 17 12 7 6 14 7 15 4 15 22 22 38 39 39 35 28 23 22 17 9 6 5 4 8 10 9 8 7 7 10 10 8 7 7 6 4 7 10
18 13 17 15 16 20 13 12 10 11 15 6 19 16 10 29 23 10 30 38 37 29 24 21 15 15 9 7 4 7 10 9 8 7 7 8 10 8 8 7 6 5 5 6
22 22 18 14 13 16 17 14 7 3 4 7 6 15 15 13 21 16 15 37 31 28 27 28 24 21 17 11 6 5 9 11 9 9 7 7 11 8 10 9 8 7 6 6
11 10 22 17 20 13 16 19 8 5 5 4 8 9 8 17 20 26 21 33 28 29 32 29 26 24 22 20 14 6 8 10 10 10 8 7 10 10 11 11 9 8 7 8
10 8 15 13 19 17 15 25 17 7 6 4 5 7 8 14 18 28 25 24 37 29 26 29 28 29 30 27 17 11 7 7 10 13 13 10 11 10 10 11 10 9 8 8
5 5 9 18 17 17 14 19 17 10 5 3 2 4 7 11 18 27 26 20 36 35 31 31 30 30 31 30 21 22 15 11 11 15 17 14 12 14 15 11 12 11 11 9
16 9 5 14 14 19 23 21 14 15 5 6 4 4 12 12 22 25 30 25 26 33 33 30 8 19 24 22 29 26 22 18 15 13 20 20 18 17 17 16 14 10 12 11
13 7 8 1 7 17 18 20 16 12 6 4 4 4 9 12 18 23 24 27 27 31 27 30 29 10 10 18 21 25 24 26 22 18 20 22 22 22 21 21 20 18 14 14
11 7 6 7 8 15 15 18 17 15 13 12 6 5 13 14 15 16 20 26 27 24 24 22 22 24 23 19 26 27 24 30 25 22 21 26 25 24 24 23 20 19 17 17
5 4 7 8 7 7 7 13 15 14 13 10 7 14 17 17 18 16 14 16 21 24 18 23 23 20 22 20 20 15 12 18 23 30 32 27 26 25 25 23 21 20 18 17
6 11 15 16 11 9 6 7 13 13 13 15 13 10 16 19 19 14 13 13 12 12 12 16 23 22 16 21 22 20 20 22 13 17 35 32 27 24 23 24 22 21 21 20
7 4 9 17 14 8 9 4 9 12 14 11 12 19 17 16 19 20 21 18 15 14 13 12 12 19 23 25 22 24 18 22 16 9 23 33 26 26 21 27 26 24 25 24
8 7 7 3 9 10 9 9 5 10 15 15 17 20 20 21 22 22 20 17 15 16 13 15 15 19 16 21 21 20 19 19 11 6 5 13 27 17 27 32 32 25 24 32
7 14 13 2 4 2 7 22 9 3 11 18 18 22 26 21 22 22 18 17 18 17 13 13 15 19 18 17 22 25 22 19 17 11 12 15 12 8 4 14 15 18 31 30
5 4 6 6 3 5 8 4 6 3 7 15 16 15 23 24 24 23 23 23 19 17 14 12 11 13 13 15 16 17 18 19 21 20 18 20 15 13 11 15 22 13 5 11
7 4 4 9 6 8 9 8 7 5 3 6 15 11 26 26 26 27 26 23 16 13 15 16 15 13 12 13 15 16 17 18 20 19 19 18 19 19 20 21 22 23 22 13
2 5 7 9 5 4 8 15 10 8 2 6 3 3 15 20 20 16 16 17 16 15 15 11 12 16 16 14 12 12 13 14 15 16 16 16 16 16 15 15 15 15 16 18
2 3 4 5 5 4 8 11 12 9 14 16 7 9 9 11 12 11 16 18 14 15 14 13 12 12 11 11 13 15 15 15 15 16 17 17 18 18 19 19 19 19 19 18
4 4 3 2 4 5 5 14 13 17 15 11 19 16 16 15 14 13 11 18 16 14 12 12 12 11 11 13 15 16 18 20 21 22 24 24 25 25 26 25 25 25 25 26
5 6 6 7 7 6 6 6 11 15 16 15 13 18 20 20 18 16 15 16 17 13 12 9 10 13 16 16 18 21 24 27 28 27 28 29 29 30 31 30 31 31 31 32
6 7 8 10 9 8 7 7 8 9 9 9 14 15 21 22 24 21 12 12 15 11 12 13 16 18 18 20 20 20 20 21 26 30 30 31 31 30 30 31 32 34 36 36
11 11 13 13 10 9 9 10 10 10 8 6 4 10 14 22 24 22 21 18 16 16 18 20 22 23 23 23 25 25 25 25 24 24 26 28 27 28 28 27 26 26 27 28
Wind_Direction
191 193 197 196 185 161 137 142 176 173 194 194 212 261 275 181 189 196 194 182 177 189 162 165 172 169 127 125 171 182 174 183 153 140 149 162 155 138 142 144 153 156 166 170
190 199 196 196 194 192 167 136 147 155 164 204 208 234 217 185 191 196 202 196 188 190 185 178 187 192 202 208 196 200 181 187 175 163 149 153 150 144 142 142 149 159 168 166
197 206 197 197 200 205 198 170 146 164 145 137 155 17 207 198 194 198 202 205 199 195 193 188 194 197 233 218 195 212 183 185 196 174 160 165 155 139 139 131 146 158 169 174
200 174 204 214 213 213 211 200 180 192 159 142 155 187 230 207 208 201 203 207 206 202 200 199 204 210 238 171 182 200 202 191 193 189 174 162 168 170 161 131 140 158 173 180
193 210 195 206 216 216 214 211 219 224 199 195 199 209 215 199 198 210 202 205 208 207 198 201 212 190 146 155 172 200 213 201 194 182 194 185 178 183 187 154 141 138 154 171
202 184 208 211 207 208 203 199 193 202 213 252 236 211 224 210 203 186 211 204 207 206 204 205 196 207 188 180 198 207 208 208 202 197 205 199 192 197 185 163 150 145 146 162
223 222 200 192 194 186 188 170 130 84 173 219 206 207 225 227 218 205 181 200 203 206 201 212 215 214 218 200 200 247 229 209 204 206 202 211 200 196 195 184 177 166 160 174
216 235 213 210 208 193 200 199 168 156 189 203 154 206 209 224 216 206 199 205 201 211 210 214 218 219 217 206 197 222 226 210 209 215 206 214 211 203 189 188 195 196 190 200
194 233 197 206 200 198 204 206 203 145 159 154 195 214 233 217 201 201 212 207 205 203 207 218 224 227 220 227 187 180 175 190 211 212 213 206 210 203 214 207 206 197 200 205
233 239 164 194 198 210 203 200 194 205 138 182 208 224 224 202 197 201 200 199 209 212 213 224 230 236 233 219 200 187 198 223 243 215 213 213 206 211 217 220 213 217 212 206
224 243 153 181 200 207 206 192 188 205 178 151 156 222 215 220 196 202 210 217 212 217 218 224 190 234 232 222 209 195 201 215 235 244 218 214 212 210 219 219 226 223 209 217
215 231 247 171 197 199 201 209 204 197 189 161 157 179 193 198 202 198 199 208 215 217 217 223 215 217 209 216 214 216 202 224 227 226 233 224 222 220 221 224 226 228 227 231
188 207 207 155 140 174 191 202 210 216 182 182 162 185 186 191 199 193 201 209 212 214 213 215 222 232 241 242 226 228 235 219 241 235 235 235 227 225 225 227 228 228 234 234
243 194 216 179 142 132 138 171 183 201 198 180 179 176 184 193 197 200 201 211 217 204 212 217 217 229 233 230 236 243 228 222 268 255 244 234 231 226 223 223 226 227 226 230
118 114 125 125 103 103 114 175 178 192 207 210 202 197 201 200 194 183 185 191 184 191 201 214 216 223 239 229 211 225 241 236 300 252 223 224 229 231 227 227 227 232 235 231
175 174 131 125 124 103 104 145 190 196 201 199 197 192 197 192 189 195 195 194 184 171 194 199 222 237 232 230 221 224 239 235 256 231 218 221 228 236 250 242 235 239 245 239
213 178 225 171 214 217 280 346 346 211 218 220 203 194 188 192 195 194 182 185 204 225 220 214 240 249 232 227 230 229 232 225 230 148 178 196 222 264 257 244 233 247 264 247
181 235 251 28 347 99 214 254 302 258 228 223 212 206 202 206 195 204 197 211 196 191 202 226 240 226 224 224 232 233 227 215 204 166 153 160 181 165 17 227 209 284 254 240
149 133 186 204 260 151 162 175 177 167 206 213 208 205 198 203 207 203 175 178 186 196 199 187 195 208 207 203 202 199 205 196 193 200 201 203 203 216 230 183 202 237 287 315
246 239 188 161 168 197 162 152 163 217 336 197 195 207 209 211 210 199 193 185 183 179 169 169 158 163 163 169 178 187 187 187 192 202 209 215 221 225 229 231 234 245 249 253
210 219 216 209 226 241 223 211 209 231 157 71 66 210 206 216 229 215 191 176 177 167 173 176 169 163 176 184 191 193 189 192 196 198 205 210 215 221 228 238 245 250 252 247
237 203 190 202 206 230 234 235 242 225 240 251 271 231 210 213 224 210 185 172 164 169 177 185 190 196 207 212 209 216 224 228 232 236 237 238 242 247 252 254 259 261 267 264
213 222 210 211 213 205 207 224 240 244 235 253 235 222 220 219 231 214 191 188 170 165 175 192 208 227 244 249 253 252 247 245 245 247 252 254 253 254 256 259 262 265 268 268
216 218 237 235 234 243 238 221 237 251 258 248 234 225 228 226 215 219 214 202 192 201 204 218 247 263 271 270 263 258 260 260 259 256 256 256 257 258 258 260 262 264 266 268
247 253 249 252 250 251 256 254 246 249 260 251 224 225 232 231 223 220 200 203 202 216 239 257 264 275 281 279 275 271 267 260 258 259 260 261 261 260 259 258 258 259 262 264
261 260 261 268 269 266 266 267 259 253 257 288 228 227 226 233 228 221 206 210 223 233 247 256 261 265 266 265 267 270 270 269 265 261 260 261 261 261 261 262 262 261 262 263
Height
3130 3134 3136 3142 3148 3151 3152 3152 3155 3158 3161 3164 3165 3167 3168 3169 3175 3180 3185 3190 3194 3199 3203 3206 3210 3213 3215 3217 3218 3220 3222 3224 3225 3227 3228 3229 3230 3232 3233 3235 3237 3238 3240 3242
3130 3133 3139 3144 3147 3150 3152 3153 3155 3159 3161 3164 3164 3165 3169 3170 3175 3180 3183 3188 3193 3198 3202 3206 3209 3213 3216 3217 3218 3220 3222 3225 3226 3227 3229 3230 3231 3232 3234 3236 3237 3239 3240 3242
3128 3133 3138 3142 3145 3149 3152 3154 3155 3159 3161 3162 3165 3167 3169 3172 3175 3179 3182 3187 3192 3196 3201 3205 3208 3211 3215 3216 3218 3220 3222 3224 3226 3227 3229 3231 3233 3234 3235 3236 3238 3240 3242 3243
3131 3133 3136 3140 3144 3148 3150 3153 3155 3157 3160 3164 3165 3169 3167 3169 3173 3176 3180 3184 3189 3195 3200 3204 3208 3211 3214 3216 3217 3219 3222 3224 3226 3227 3229 3231 3234 3235 3236 3237 3239 3240 3242 3244
3130 3132 3134 3136 3141 3146 3150 3153 3154 3157 3159 3163 3165 3167 3164 3167 3168 3172 3176 3180 3186 3192 3197 3201 3206 3210 3214 3216 3218 3219 3221 3224 3225 3227 3229 3231 3233 3235 3237 3237 3239 3241 3242 3244
3129 3130 3132 3136 3139 3144 3148 3150 3153 3156 3159 3162 3161 3164 3160 3157 3160 3165 3169 3176 3182 3188 3194 3200 3205 3209 3214 3216 3217 3218 3220 3223 3224 3226 3229 3231 3233 3235 3237 3238 3239 3241 3243 3244
3126 3127 3130 3133 3136 3140 3144 3146 3153 3158 3160 3158 3155 3159 3156 3156 3158 3162 3163 3171 3179 3185 3191 3197 3201 3206 3210 3214 3216 3217 3219 3221 3224 3226 3228 3231 3233 3235 3236 3238 3239 3241 3243 3245
3125 3127 3127 3129 3132 3136 3139 3143 3144 3153 3156 3152 3153 3154 3153 3155 3155 3160 3165 3172 3178 3183 3187 3193 3199 3204 3207 3210 3213 3216 3217 3219 3222 3225 3227 3229 3232 3234 3236 3237 3239 3241 3242 3244
3123 3123 3123 3127 3131 3135 3136 3138 3144 3144 3146 3148 3150 3150 3150 3150 3154 3157 3162 3168 3174 3180 3184 3190 3196 3199 3202 3206 3210 3215 3217 3218 3220 3223 3225 3226 3228 3232 3234 3237 3238 3239 3241 3243
3121 3122 3122 3125 3128 3131 3133 3137 3139 3140 3146 3147 3147 3147 3145 3148 3151 3154 3160 3164 3170 3176 3181 3186 3191 3193 3198 3202 3204 3210 3215 3218 3219 3220 3222 3224 3226 3229 3231 3235 3236 3238 3240 3242
3119 3121 3122 3123 3124 3126 3130 3131 3134 3137 3138 3140 3146 3145 3144 3145 3148 3152 3157 3162 3167 3172 3178 3184 3190 3192 3193 3196 3200 3205 3209 3214 3217 3219 3220 3222 3224 3226 3228 3231 3234 3235 3237 3239
3118 3119 3120 3122 3122 3124 3127 3129 3132 3133 3138 3136 3137 3142 3141 3143 3145 3150 3156 3160 3164 3168 3175 3181 3185 3188 3192 3195 3197 3200 3205 3208 3212 3215 3218 3220 3222 3223 3225 3228 3230 3232 3234 3236
3116 3118 3118 3120 3123 3122 3124 3127 3129 3132 3133 3134 3136 3140 3140 3143 3146 3150 3155 3160 3164 3168 3172 3177 3183 3185 3189 3191 3194 3196 3200 3205 3209 3212 3214 3217 3218 3220 3222 3224 3227 3229 3231 3233
3116 3116 3117 3118 3120 3122 3123 3125 3128 3131 3133 3134 3134 3136 3139 3142 3145 3149 3153 3158 3163 3167 3171 3174 3178 3181 3186 3188 3190 3193 3196 3202 3204 3204 3207 3211 3214 3216 3218 3220 3224 3226 3228 3231
3115 3116 3117 3118 3120 3120 3122 3124 3125 3129 3131 3133 3136 3136 3137 3141 3145 3149 3152 3156 3161 3165 3168 3171 3175 3178 3180 3184 3187 3190 3193 3196 3196 3192 3195 3204 3208 3212 3215 3218 3220 3223 3226 3228
3114 3118 3120 3118 3119 3122 3123 3124 3125 3127 3129 3131 3133 3135 3137 3141 3145 3148 3151 3155 3158 3162 3165 3167 3171 3175 3177 3180 3183 3186 3189 3192 3193 3191 3193 3199 3204 3207 3210 3213 3216 3219 3222 3224
3116 3122 3123 3119 3119 3119 3122 3124 3124 3124 3126 3129 3130 3134 3136 3138 3141 3145 3149 3154 3157 3160 3163 3164 3167 3169 3172 3175 3178 3182 3185 3190 3191 3192 3192 3192 3200 3202 3204 3205 3209 3214 3217 3219
3113 3114 3118 3118 3121 3123 3123 3122 3124 3124 3124 3125 3127 3130 3132 3136 3140 3144 3147 3152 3154 3157 3160 3162 3162 3166 3168 3170 3173 3178 3183 3185 3188 3191 3194 3197 3199 3201 3197 3197 3207 3211 3208 3212
3115 3116 3116 3118 3123 3125 3123 3122 3123 3123 3125 3125 3127 3127 3133 3136 3138 3141 3145 3149 3153 3156 3156 3157 3160 3164 3166 3168 3171 3174 3178 3182 3185 3188 3192 3195 3196 3198 3198 3201 3205 3206 3202 3204
3115 3115 3118 3118 3120 3121 3122 3122 3122 3121 3122 3124 3126 3127 3131 3135 3135 3138 3141 3145 3150 3152 3155 3158 3160 3164 3166 3169 3172 3175 3177 3180 3182 3185 3187 3189 3191 3194 3196 3198 3199 3201 3201 3201
3112 3113 3114 3115 3116 3117 3119 3119 3120 3124 3130 3126 3128 3129 3132 3136 3141 3141 3141 3145 3148 3152 3156 3159 3161 3161 3165 3168 3171 3173 3175 3178 3181 3182 3184 3187 3188 3188 3190 3193 3193 3195 3196 3198
3111 3112 3113 3114 3115 3118 3118 3119 3120 3122 3123 3124 3126 3130 3134 3136 3138 3139 3141 3144 3148 3151 3156 3159 3161 3163 3166 3167 3169 3172 3174 3176 3177 3179 3181 3183 3183 3184 3185 3186 3187 3188 3189 3191
3113 3113 3113 3115 3115 3116 3115 3116 3116 3117 3119 3121 3122 3126 3131 3135 3137 3138 3142 3144 3147 3149 3153 3156 3160 3162 3164 3165 3167 3168 3170 3172 3173 3174 3176 3177 3179 3180 3181 3181 3182 3183 3184 3184
3111 3111 3113 3115 3114 3114 3115 3116 3116 3116 3116 3117 3119 3122 3127 3131 3134 3136 3139 3142 3145 3147 3150 3152 3154 3157 3159 3160 3161 3162 3164 3165 3167 3169 3171 3172 3173 3174 3175 3175 3176 3177 3177 3179
3110 3110 3111 3112 3113 3114 3114 3114 3114 3115 3114 3115 3116 3119 3122 3126 3130 3133 3136 3139 3142 3144 3146 3148 3150 3151 3151 3153 3154 3156 3157 3159 3160 3161 3163 3164 3164 3165 3166 3167 3168 3169 3170 3170
3107 3107 3108 3108 3109 3110 3111 3112 3112 3113 3113 3114 3115 3116 3119 3122 3126 3127 3128 3134 3136 3139 3141 3143 3145 3147 3149 3150 3150 3149 3150 3151 3152 3153 3154 3155 3156 3157 3157 3158 3160 3160 3161 3162